Temperature
22 21 21 20 20 20 22 24 24 24 24 24 24 23 23 22 21 20 20 20 20 20 20 20 20 20 20 19 19 19 19 19 19 19 19 19 19 19 19 19 19 19 19 19 19 19 19 18 18
22 21 21 20 20 21 23 24 24 24 25 25 24 23 22 21 21 20 20 20 21 21 20 20 20 20 20 19 19 19 19 19 19 19 19 19 19 19 19 19 19 19 19 19 19 19 18 18 18
22 21 21 20 21 22 24 25 25 25 25 25 24 23 22 21 20 20 20 20 21 21 20 20 20 20 20 19 19 19 19 19 19 19 19 19 19 19 19 19 19 19 19 19 18 18 18 18 18
22 21 21 21 23 24 25 25 25 25 25 24 24 22 22 21 21 21 20 21 21 20 20 20 20 20 20 19 19 19 19 19 19 19 19 19 19 19 19 19 19 18 18 18 18 18 18 18 18
22 22 21 22 24 25 26 26 26 25 25 24 23 22 21 21 21 21 21 21 21 20 20 20 20 20 20 20 19 19 19 19 19 19 19 19 19 19 19 19 18 18 18 18 18 18 18 18 18
22 21 21 23 25 26 26 26 25 25 24 23 23 22 21 21 21 21 21 21 21 20 20 20 20 20 20 19 19 19 19 19 19 19 19 19 19 19 18 18 18 18 18 18 18 18 18 18 18
22 21 22 24 25 26 27 26 25 24 24 24 23 21 21 21 21 21 21 21 21 20 20 20 20 20 19 19 19 19 19 19 19 19 19 19 19 18 18 18 18 18 18 18 18 18 18 18 18
24 21 23 24 25 26 27 27 26 25 25 24 24 22 21 21 21 21 21 21 20 20 20 20 20 19 19 19 19 19 19 19 19 19 19 19 18 18 18 18 18 18 18 18 18 18 18 18 18
24 22 22 24 25 26 27 26 26 25 25 24 24 23 22 22 21 21 20 20 20 20 20 20 20 19 19 19 19 19 19 19 19 19 18 18 18 18 18 18 18 18 18 18 18 18 18 18 18
24 22 24 26 26 26 27 26 26 25 24 24 23 23 22 22 21 21 21 21 20 20 20 20 20 19 19 19 19 19 18 18 18 18 18 18 18 18 18 18 18 18 18 18 18 18 18 18 18
24 24 26 27 27 27 27 26 26 25 23 23 23 22 22 22 21 21 21 21 21 20 20 20 19 19 19 19 19 19 18 18 18 18 18 18 18 18 18 18 18 18 18 18 18 18 18 18 18
25 26 27 27 28 27 27 26 25 25 24 24 24 23 22 22 21 21 21 21 20 20 20 20 19 19 19 19 19 19 18 18 18 18 18 18 18 18 18 18 18 18 18 18 18 18 18 18 18
26 27 28 28 28 27 27 26 25 25 24 24 23 23 22 22 22 21 21 21 20 20 20 20 19 19 19 19 19 18 18 18 18 18 18 18 18 18 18 17 17 17 17 17 18 18 17 18 17
27 27 27 27 27 27 26 25 25 24 24 24 23 23 22 22 22 21 21 21 20 20 20 20 19 19 19 19 19 18 18 18 18 18 18 18 18 18 18 18 17 17 17 17 17 17 17 17 17
28 26 26 26 26 26 26 25 24 24 24 23 23 23 23 22 22 22 21 21 21 20 20 20 19 19 19 19 18 18 18 18 18 18 18 18 18 17 17 18 17 17 17 17 17 17 17 17 17
26 25 25 26 26 26 25 23 24 24 24 23 23 23 22 22 22 22 21 21 21 20 20 20 20 19 19 19 19 18 18 18 18 18 18 18 18 18 17 17 17 17 17 17 17 18 17 17 17
24 24 25 26 26 26 24 23 24 24 24 23 23 23 22 22 22 22 22 21 21 21 20 20 20 19 19 19 19 18 18 18 18 18 17 17 18 17 17 17 17 17 17 17 17 17 17 17 17
24 24 25 26 26 26 24 23 24 24 24 23 23 23 22 22 22 22 22 21 21 21 20 20 20 19 19 19 19 18 18 18 18 17 17 17 17 17 17 17 17 17 17 17 17 17 17 17 17
26 26 26 26 27 25 24 24 24 24 24 23 23 22 22 22 22 22 21 21 21 20 20 20 20 19 19 19 19 18 18 18 17 17 17 17 17 17 17 17 17 17 17 17 17 17 17 17 17
27 26 26 27 27 26 24 24 24 24 24 23 23 22 22 22 21 21 21 21 21 21 20 20 20 19 19 19 19 18 18 18 17 17 17 17 17 17 17 17 17 17 17 17 17 17 17 17 17
27 27 26 26 26 25 24 23 23 24 24 23 23 23 22 22 21 21 21 21 21 21 20 20 20 19 19 19 18 18 18 18 17 17 17 17 17 17 17 17 17 17 17 17 17 17 17 16 16
27 28 28 27 24 23 24 22 23 22 23 23 23 22 22 22 22 21 21 21 21 21 20 20 20 19 19 19 18 18 18 18 17 17 17 17 17 17 17 17 17 17 16 16 16 16 16 16 16
28 29 28 27 24 23 23 22 22 22 22 22 23 23 23 22 22 22 21 21 21 20 20 20 19 19 19 18 18 18 18 17 17 17 17 17 17 17 17 17 17 16 16 16 16 16 16 16 16
29 27 25 23 22 22 22 22 22 21 22 23 23 23 23 23 22 22 22 21 21 20 20 20 19 19 19 18 18 18 18 17 17 17 17 17 17 17 17 17 16 16 16 16 16 16 16 16 16
27 24 23 23 22 22 22 22 22 23 24 23 23 23 23 23 23 22 22 21 21 20 20 20 19 19 19 18 18 18 17 17 17 17 17 17 17 17 17 17 16 16 16 16 16 16 16 16 16
27 25 23 23 22 22 22 22 23 24 24 25 24 24 23 23 23 22 22 22 21 21 20 20 19 19 18 18 18 18 17 17 17 17 17 17 17 16 16 16 16 16 16 16 16 16 16 16 16
27 25 24 22 22 21 22 22 23 24 23 23 24 24 23 23 23 22 22 22 22 21 21 20 19 19 18 18 18 18 17 17 17 17 17 16 16 16 16 16 16 16 16 16 16 16 16 16 16
27 26 22 22 22 22 22 22 22 23 23 23 23 23 23 23 23 22 22 22 22 21 21 20 19 19 19 18 18 18 17 17 17 17 17 16 16 16 16 16 16 16 16 16 16 16 15 15 16
27 26 23 20 21 21 21 22 23 22 22 22 22 23 23 23 23 23 22 22 21 21 20 20 19 19 18 18 18 18 17 17 17 17 17 17 16 16 16 16 16 16 16 16 16 15 15 15 15
27 26 23 23 22 20 20 22 24 23 23 23 23 23 24 23 23 23 22 22 21 21 20 20 19 19 18 18 18 18 18 17 17 17 17 17 16 16 16 16 16 16 15 15 15 15 15 15 15
Wind_Speed
10 8 3 0 2 2 3 3 5 5 4 6 10 10 9 7 4 5 3 10 12 10 11 13 14 14 13 13 13 13 13 13 13 13 12 12 12 12 12 11 11 10 10 10 9 9 8 7 7
8 5 2 1 3 3 2 4 7 7 7 8 11 11 9 7 7 8 5 10 12 11 11 13 15 14 13 13 13 13 13 12 12 12 11 11 11 11 11 10 10 9 9 9 8 8 7 6 6
7 4 1 1 1 4 4 6 9 8 8 7 6 7 6 5 7 6 7 13 11 10 11 13 15 14 13 13 13 13 12 12 11 11 11 10 10 10 10 9 9 8 8 8 7 7 6 6 5
3 1 1 2 1 2 6 7 10 10 8 8 8 7 5 4 5 9 13 14 12 9 11 14 15 14 13 13 12 12 11 11 10 10 9 9 9 9 9 8 8 8 7 7 7 6 6 6 5
1 2 2 1 2 3 6 7 9 8 6 8 10 8 5 5 13 16 14 13 13 9 9 12 14 14 13 13 12 11 11 10 9 9 9 8 8 8 8 8 8 8 7 7 7 6 6 6 6
2 2 2 1 3 4 4 7 10 11 11 10 10 8 4 8 14 14 14 13 12 11 10 11 13 13 12 12 11 11 10 9 9 8 8 8 7 7 7 7 7 7 7 6 6 7 7 7 7
2 1 1 2 3 4 6 7 9 9 10 7 8 7 5 6 11 14 13 12 10 10 8 8 9 10 11 11 10 10 9 8 8 8 8 8 7 7 7 7 7 8 7 7 6 6 7 8 8
3 1 1 1 3 3 6 7 8 10 8 9 7 8 7 8 11 13 12 10 9 8 7 6 6 7 7 8 9 9 8 7 7 7 7 7 6 6 6 7 7 8 7 7 6 7 8 9 9
2 2 1 3 5 4 7 10 7 8 9 6 5 7 11 13 14 13 10 8 7 7 5 5 4 5 5 6 7 7 7 6 5 5 6 5 4 5 5 6 7 7 7 7 6 6 7 8 9
3 2 4 3 5 6 8 10 8 6 9 8 10 10 13 14 13 12 11 10 8 7 6 5 4 4 4 5 5 4 4 4 4 4 4 3 3 4 4 6 7 7 7 7 7 7 6 6 5
4 5 2 2 5 7 7 6 5 9 7 10 15 15 14 13 12 11 10 9 8 8 7 5 4 4 3 2 4 3 3 3 3 3 3 3 3 2 2 3 4 5 5 4 5 5 4 4 4
2 4 3 3 5 7 7 6 6 6 7 11 14 15 13 13 11 11 10 8 7 7 6 5 4 4 3 3 3 3 2 2 2 3 4 3 1 1 2 2 3 3 3 3 3 3 4 4 5
2 0 2 4 6 8 8 7 7 7 10 12 13 13 12 12 10 8 8 8 7 6 6 5 5 4 3 3 2 3 2 3 3 2 3 4 2 1 1 1 2 2 2 2 2 2 2 2 3
2 2 3 4 5 6 9 6 7 7 12 12 12 11 11 11 10 9 8 8 7 7 6 5 5 4 4 3 2 2 3 3 3 2 2 3 3 2 1 1 1 1 2 2 2 2 2 2 2
1 2 3 3 4 4 7 6 5 9 12 12 12 11 10 10 9 10 10 9 8 7 6 6 6 5 5 4 3 3 3 3 2 2 2 3 3 3 2 1 1 1 1 1 1 1 1 1 1
3 4 2 2 4 3 6 3 3 8 11 10 10 10 9 8 9 9 10 8 8 7 6 6 6 5 4 3 3 3 3 3 2 2 2 2 3 3 2 1 1 1 1 1 1 1 1 1 1
3 1 2 4 3 5 5 4 4 6 9 9 9 9 9 8 7 8 9 9 8 8 7 6 5 5 4 3 3 3 3 2 2 2 2 2 3 3 3 1 1 0 1 0 1 1 1 1 1
4 2 3 4 3 7 6 6 7 6 9 10 9 8 8 9 8 8 8 9 8 7 7 6 5 5 4 3 3 2 2 2 1 1 1 2 3 3 3 1 0 0 1 0 0 1 0 0 1
6 5 5 5 5 5 7 7 8 7 8 8 8 7 7 7 7 7 8 9 8 7 6 6 5 5 4 3 2 2 1 1 1 1 1 1 2 2 2 1 1 1 1 1 1 1 1 1 0
4 5 3 1 4 5 7 4 5 7 10 11 11 10 9 6 6 7 7 7 8 8 7 6 6 5 5 3 3 2 2 1 1 1 1 1 2 2 2 2 1 1 1 1 1 1 1 1 1
4 6 5 5 3 4 6 1 2 4 5 7 9 9 10 10 9 8 8 8 8 8 8 7 5 5 4 4 3 2 2 2 1 1 1 1 1 2 1 1 1 1 2 1 1 1 1 1 1
4 6 8 9 5 2 3 2 5 3 4 7 8 9 9 9 8 7 8 8 8 7 6 5 5 4 4 4 4 4 3 2 2 1 1 1 0 1 1 1 1 1 1 1 1 1 1 2 1
4 2 4 5 4 2 2 3 5 2 4 7 8 10 10 10 11 10 9 9 8 8 6 5 5 4 4 4 4 4 3 2 1 1 0 1 1 0 1 1 1 0 0 0 0 1 1 1 1
2 4 6 5 5 2 3 3 5 5 9 8 8 9 10 11 11 10 8 7 6 6 6 5 5 4 3 4 4 4 4 3 2 1 1 0 1 1 1 0 0 0 1 0 1 1 1 1 1
4 6 4 5 4 3 2 1 6 8 8 10 9 9 9 10 10 9 9 8 7 7 7 6 6 4 3 4 3 4 4 3 3 2 2 1 0 1 1 0 0 0 1 1 1 1 1 1 1
2 8 7 4 4 3 2 3 6 5 3 5 7 8 7 9 10 10 10 10 10 9 8 7 6 4 3 3 2 2 3 2 1 1 1 1 1 1 1 0 0 0 0 1 1 1 1 1 0
2 2 7 7 3 1 3 4 4 2 3 4 6 7 8 9 10 10 9 9 9 9 8 8 7 5 4 4 3 2 1 2 2 1 1 1 1 1 1 1 1 1 1 0 1 1 0 0 0
5 5 6 5 4 2 3 4 4 4 6 6 7 8 8 8 9 10 9 9 8 8 7 7 7 6 5 5 4 3 2 2 2 1 2 2 2 1 1 1 1 1 1 2 2 1 1 1 0
1 2 5 4 6 6 3 6 6 10 10 9 8 9 10 10 10 10 8 8 8 8 7 7 6 5 5 4 4 3 3 2 2 2 2 2 1 1 1 1 1 1 1 1 1 1 1 1 2
4 5 6 4 3 5 5 6 5 9 9 9 8 8 8 9 9 9 9 8 8 8 7 6 6 5 5 4 4 3 3 2 2 2 2 2 2 1 1 1 1 1 1 1 1 1 1 1 1
Wind_Direction
167 158 150 138 32 38 79 97 97 76 54 64 78 84 84 71 94 136 155 144 141 145 148 142 135 129 126 125 126 127 127 128 127 127 126 126 127 129 131 131 133 134 134 134 135 134 133 135 135
158 162 156 40 70 72 71 98 91 96 121 109 83 80 74 70 84 113 126 145 143 143 143 139 135 131 129 128 127 127 128 128 128 131 132 132 133 134 135 138 140 141 140 140 141 143 144 143 143
166 179 117 40 99 138 130 117 112 102 99 92 84 66 74 98 109 123 147 144 136 136 140 141 137 133 130 129 128 129 129 129 131 133 135 139 141 142 141 142 143 145 148 150 153 155 155 156 154
157 127 32 39 102 145 133 127 121 106 82 77 92 74 67 99 115 132 138 136 133 136 142 144 139 136 134 134 134 134 133 134 136 138 139 143 145 147 149 150 152 154 158 163 166 171 178 179 177
112 87 35 13 108 112 126 127 116 108 98 93 96 98 80 75 115 129 134 134 135 138 143 145 143 142 140 138 138 140 140 140 141 143 146 148 150 150 154 157 160 161 165 172 178 186 192 199 201
55 67 56 53 98 114 124 121 109 102 113 110 104 106 100 120 124 132 133 133 135 139 144 146 148 148 147 145 143 142 143 146 148 151 155 157 158 161 162 165 168 169 172 177 184 194 202 209 213
124 82 212 165 123 116 129 127 119 123 125 125 123 105 116 133 131 133 132 135 132 133 138 141 146 149 153 151 148 148 149 150 154 162 166 169 171 172 177 183 181 181 184 185 193 202 209 214 218
156 97 316 174 133 126 126 114 126 125 114 126 121 124 151 164 138 132 129 129 130 134 135 138 145 150 157 160 157 157 157 159 163 169 171 174 181 185 192 196 195 193 197 202 209 215 220 221 223
140 91 236 195 154 150 120 112 114 103 111 116 105 129 151 144 132 127 124 122 134 141 149 146 145 152 162 167 171 169 166 166 169 169 173 179 190 199 207 211 208 204 207 212 218 222 224 227 229
134 153 219 197 154 147 127 124 128 108 106 105 105 113 131 133 132 134 138 140 147 155 161 157 161 165 165 168 167 171 170 171 171 167 173 176 187 197 203 215 220 216 216 219 225 230 230 232 238
168 188 217 109 128 130 126 118 118 123 126 144 141 141 141 137 139 143 146 151 155 159 159 161 167 167 168 170 157 166 168 169 179 174 178 178 184 197 215 219 228 231 229 228 239 236 232 227 225
181 214 170 113 111 117 125 126 116 124 149 151 145 145 145 143 149 153 151 151 149 149 158 163 164 165 175 162 157 159 153 163 172 182 178 164 161 197 207 205 220 221 225 221 232 226 226 226 224
165 248 141 121 102 111 106 110 115 119 126 134 137 137 142 144 147 148 146 143 137 146 159 162 157 152 154 145 150 139 152 161 170 167 165 161 159 183 180 177 192 197 200 200 207 220 217 219 222
213 168 131 124 110 106 111 111 102 135 133 137 143 145 149 151 150 141 138 140 142 145 152 153 150 147 138 138 139 138 148 155 152 162 168 159 158 150 148 178 185 195 201 208 204 210 208 213 213
6 47 53 102 100 106 95 84 120 147 137 141 147 150 152 155 151 149 153 150 149 148 149 152 144 136 137 131 129 124 142 146 145 150 155 153 155 150 145 165 185 228 224 218 213 224 207 215 206
29 49 14 280 132 123 97 120 152 151 145 150 153 154 154 156 157 157 154 149 147 145 149 154 143 135 135 128 121 116 128 136 144 147 154 147 150 145 130 134 204 241 200 165 180 186 179 231 219
22 91 252 279 154 132 118 164 176 157 145 153 160 162 158 154 158 162 162 156 151 151 151 150 141 142 142 130 117 108 112 116 131 136 134 141 146 137 131 136 212 205 100 102 186 103 162 194 243
240 212 224 231 190 140 141 171 179 170 155 165 166 167 160 161 172 166 161 157 151 150 147 147 144 145 140 124 100 85 86 81 85 103 109 125 136 135 135 131 211 129 106 59 69 86 76 173 240
200 204 222 237 192 145 158 168 189 176 161 166 165 164 163 172 174 163 161 159 149 150 147 150 147 154 144 136 132 122 120 103 71 68 89 130 136 133 130 119 131 133 143 167 125 96 67 337 30
204 209 227 242 172 150 147 157 194 178 177 173 170 168 163 164 171 173 172 164 160 163 163 159 162 168 162 164 162 150 141 143 132 37 45 125 128 142 148 134 157 149 134 103 78 80 90 325 83
237 198 193 163 92 69 111 50 236 188 171 173 175 169 167 169 174 174 171 173 166 167 170 170 172 169 165 152 129 106 78 52 36 16 358 357 137 138 122 109 118 137 153 171 171 130 143 203 306
271 212 175 156 138 203 155 176 266 216 188 185 179 173 174 170 167 168 166 166 170 171 166 162 159 161 162 151 140 145 145 164 205 208 245 315 60 127 150 110 88 110 148 169 210 143 146 157 243
245 218 139 140 129 86 29 130 266 242 221 214 190 180 176 173 172 174 173 170 173 168 160 153 148 154 156 156 156 153 157 186 197 161 101 4 346 3 162 133 65 89 134 134 125 120 121 145 168
173 63 52 53 76 65 255 158 252 221 209 204 195 185 180 176 174 175 171 162 163 160 156 151 145 154 162 158 158 161 168 171 167 169 148 303 296 313 335 40 78 136 150 154 170 151 129 131 143
82 87 34 7 17 259 262 161 247 238 207 190 186 182 182 175 169 167 167 167 168 163 164 160 157 164 168 160 165 175 177 175 180 187 189 204 247 294 296 301 204 211 212 180 138 123 119 135 136
214 140 158 188 206 266 329 237 258 252 209 173 170 168 174 176 170 170 175 177 177 171 171 167 163 161 160 157 167 178 175 162 172 185 189 210 220 226 234 221 332 300 197 146 124 110 157 123 190
180 188 166 135 122 107 267 275 314 51 107 142 161 165 173 178 173 172 175 177 172 169 172 169 164 163 167 162 158 157 161 158 166 176 177 203 229 217 182 114 73 22 25 51 126 88 7 72 252
164 154 88 112 146 189 261 253 222 201 174 174 171 170 175 173 169 171 175 174 167 162 163 161 163 168 168 163 169 166 176 174 170 151 173 200 215 206 146 103 75 48 53 61 65 45 29 49 316
350 61 102 124 150 153 210 262 217 191 183 182 184 176 171 168 167 171 169 161 153 151 155 155 155 160 169 175 173 166 176 174 161 163 190 195 185 164 142 150 116 76 61 65 70 44 59 65 23
174 183 148 151 207 156 162 259 242 184 184 179 178 177 171 164 162 165 160 151 150 154 157 157 160 165 173 174 171 174 178 171 169 191 210 175 158 153 142 135 128 121 101 97 91 81 84 94 65
Height
1509 1509 1510 1512 1513 1518 1517 1509 1502 1500 1500 1500 1499 1500 1504 1508 1512 1520 1517 1516 1517 1517 1517 1519 1519 1520 1520 1521 1521 1522 1523 1524 1525 1526 1527 1528 1530 1530 1532 1533 1534 1535 1536 1536 1537 1538 1539 1539 1540
1509 1510 1511 1512 1517 1527 1520 1506 1504 1501 1502 1501 1502 1503 1506 1510 1511 1514 1515 1517 1518 1518 1519 1519 1520 1521 1521 1522 1522 1523 1524 1524 1526 1527 1528 1529 1530 1531 1532 1533 1534 1535 1536 1536 1537 1538 1539 1540 1540
1510 1511 1512 1513 1518 1522 1516 1505 1502 1502 1502 1501 1504 1506 1509 1513 1514 1515 1516 1517 1518 1519 1520 1521 1521 1522 1522 1522 1523 1524 1524 1525 1526 1527 1528 1529 1530 1531 1532 1533 1534 1535 1536 1536 1537 1538 1539 1539 1540
1511 1513 1514 1517 1516 1508 1504 1502 1501 1502 1504 1504 1505 1509 1513 1515 1515 1515 1517 1518 1519 1520 1521 1522 1522 1523 1523 1523 1524 1524 1525 1525 1526 1527 1528 1529 1530 1531 1531 1532 1533 1534 1535 1536 1536 1537 1538 1539 1540
1512 1513 1517 1520 1512 1504 1501 1500 1500 1502 1504 1507 1506 1512 1515 1517 1516 1516 1518 1519 1519 1520 1521 1522 1523 1523 1524 1524 1524 1525 1525 1526 1526 1527 1528 1529 1529 1530 1531 1531 1532 1533 1534 1535 1535 1536 1537 1538 1539
1513 1514 1523 1523 1512 1503 1501 1501 1501 1504 1507 1508 1509 1512 1517 1518 1517 1518 1519 1520 1520 1521 1522 1523 1523 1524 1524 1525 1525 1525 1525 1526 1526 1527 1527 1528 1529 1529 1530 1530 1531 1532 1533 1534 1534 1535 1536 1537 1538
1514 1516 1521 1516 1511 1506 1502 1501 1502 1505 1507 1509 1509 1513 1518 1519 1519 1519 1520 1521 1521 1522 1522 1523 1524 1524 1525 1525 1525 1525 1526 1526 1526 1526 1527 1527 1528 1529 1529 1529 1530 1531 1532 1533 1533 1534 1535 1535 1537
1512 1516 1518 1514 1511 1507 1501 1501 1504 1504 1507 1510 1510 1513 1517 1519 1519 1520 1521 1522 1522 1523 1523 1524 1524 1524 1524 1525 1525 1526 1526 1526 1525 1526 1526 1527 1527 1528 1528 1528 1529 1530 1531 1531 1532 1532 1533 1534 1535
1511 1518 1521 1512 1509 1505 1501 1503 1506 1506 1508 1510 1511 1512 1515 1518 1519 1521 1522 1523 1523 1524 1524 1524 1524 1525 1525 1525 1525 1526 1526 1525 1525 1525 1526 1526 1527 1527 1527 1527 1528 1529 1529 1530 1530 1531 1531 1532 1533
1510 1518 1511 1501 1500 1501 1502 1503 1506 1509 1510 1511 1513 1515 1517 1518 1519 1520 1521 1522 1523 1524 1524 1525 1525 1525 1525 1525 1525 1526 1525 1525 1525 1525 1526 1526 1526 1526 1526 1526 1527 1527 1528 1528 1529 1530 1530 1531 1532
1507 1508 1502 1499 1499 1500 1502 1504 1506 1508 1512 1512 1512 1515 1517 1519 1520 1521 1522 1523 1523 1524 1525 1525 1525 1525 1525 1525 1525 1526 1525 1525 1525 1525 1526 1526 1526 1526 1525 1525 1525 1526 1527 1527 1528 1528 1529 1530 1530
1503 1501 1500 1499 1499 1500 1502 1504 1507 1508 1511 1512 1513 1514 1517 1519 1520 1521 1522 1523 1524 1524 1525 1525 1525 1525 1525 1525 1525 1525 1525 1525 1525 1525 1525 1525 1525 1525 1525 1524 1525 1525 1525 1526 1527 1527 1528 1528 1529
1502 1500 1499 1500 1500 1501 1502 1505 1507 1510 1511 1513 1515 1517 1518 1519 1521 1522 1523 1524 1524 1525 1525 1525 1525 1525 1525 1525 1525 1525 1525 1525 1525 1525 1525 1525 1524 1524 1524 1524 1524 1525 1525 1525 1526 1526 1526 1527 1528
1499 1499 1499 1501 1501 1503 1504 1507 1509 1512 1512 1514 1516 1517 1519 1520 1521 1522 1523 1524 1524 1525 1525 1525 1525 1525 1525 1525 1525 1525 1525 1525 1525 1524 1524 1524 1524 1524 1524 1524 1524 1524 1524 1524 1525 1525 1525 1526 1526
1498 1500 1501 1501 1502 1505 1506 1512 1511 1513 1513 1514 1516 1517 1519 1520 1521 1521 1522 1523 1524 1525 1525 1525 1525 1525 1525 1525 1525 1525 1525 1525 1524 1524 1523 1523 1523 1523 1523 1523 1523 1523 1523 1523 1524 1524 1524 1524 1525
1501 1507 1513 1504 1502 1505 1512 1523 1513 1514 1513 1515 1516 1517 1519 1520 1521 1522 1522 1523 1524 1525 1525 1525 1525 1526 1525 1525 1525 1525 1525 1525 1524 1523 1522 1522 1522 1521 1522 1522 1522 1522 1522 1522 1522 1522 1522 1522 1523
1511 1518 1516 1507 1501 1505 1511 1519 1513 1512 1513 1515 1516 1517 1518 1519 1521 1521 1522 1523 1524 1524 1525 1525 1525 1525 1525 1526 1526 1525 1525 1524 1524 1523 1522 1521 1521 1520 1521 1521 1521 1521 1521 1520 1520 1520 1520 1521 1521
1519 1517 1514 1510 1502 1504 1510 1513 1510 1511 1512 1513 1515 1517 1518 1519 1520 1521 1522 1523 1524 1524 1524 1525 1525 1525 1525 1525 1525 1525 1525 1524 1524 1523 1522 1521 1520 1520 1520 1520 1520 1520 1520 1520 1520 1519 1519 1520 1520
1503 1509 1511 1504 1499 1504 1508 1511 1510 1510 1511 1513 1515 1516 1518 1519 1520 1520 1521 1522 1523 1524 1524 1524 1525 1525 1525 1525 1525 1525 1524 1524 1524 1523 1522 1521 1520 1520 1520 1519 1519 1519 1519 1519 1519 1519 1519 1519 1519
1498 1506 1507 1502 1497 1503 1510 1512 1509 1509 1510 1511 1513 1515 1516 1517 1519 1520 1521 1521 1522 1522 1523 1524 1524 1524 1524 1525 1525 1525 1525 1524 1524 1523 1522 1522 1521 1520 1520 1519 1519 1519 1518 1518 1518 1518 1518 1518 1518
1498 1502 1503 1505 1503 1505 1511 1519 1513 1509 1509 1510 1511 1512 1514 1515 1517 1518 1519 1520 1521 1521 1522 1523 1523 1523 1524 1524 1525 1525 1524 1524 1523 1523 1522 1522 1521 1521 1520 1519 1519 1518 1518 1517 1517 1517 1517 1517 1517
1501 1488 1490 1497 1510 1521 1515 1535 1520 1512 1510 1509 1509 1510 1512 1514 1516 1517 1517 1518 1519 1521 1521 1522 1523 1523 1523 1524 1524 1523 1523 1523 1523 1522 1522 1522 1521 1520 1520 1519 1519 1518 1517 1517 1517 1516 1516 1516 1516
1490 1483 1488 1495 1509 1521 1519 1530 1525 1513 1513 1508 1506 1508 1509 1511 1514 1515 1515 1516 1518 1519 1520 1521 1521 1522 1522 1523 1523 1523 1523 1523 1523 1522 1522 1521 1521 1520 1520 1519 1518 1517 1517 1516 1516 1516 1516 1515 1515
1482 1488 1495 1504 1516 1534 1525 1529 1528 1514 1506 1504 1504 1505 1507 1509 1512 1513 1515 1516 1517 1518 1519 1520 1520 1521 1522 1522 1522 1522 1522 1522 1522 1521 1521 1521 1520 1520 1519 1519 1518 1517 1516 1516 1515 1515 1515 1515 1514
1484 1505 1526 1531 1539 1537 1522 1525 1522 1501 1496 1497 1499 1502 1505 1508 1510 1511 1513 1515 1516 1517 1518 1519 1520 1520 1521 1521 1521 1521 1521 1521 1521 1521 1520 1520 1520 1519 1518 1518 1517 1516 1516 1515 1514 1514 1514 1514 1513
1486 1499 1526 1539 1543 1537 1524 1526 1511 1495 1493 1493 1497 1500 1504 1506 1508 1510 1511 1513 1514 1515 1517 1518 1519 1520 1520 1520 1520 1520 1521 1520 1520 1520 1520 1519 1519 1518 1518 1517 1517 1516 1515 1514 1514 1513 1513 1513 1512
1486 1494 1496 1518 1528 1538 1531 1519 1505 1495 1494 1495 1497 1500 1503 1504 1506 1508 1510 1512 1513 1514 1517 1518 1518 1519 1519 1519 1520 1520 1520 1520 1519 1519 1519 1518 1518 1518 1517 1517 1516 1515 1514 1513 1513 1512 1512 1511 1511
1476 1484 1502 1517 1536 1544 1533 1525 1518 1503 1498 1496 1497 1499 1501 1503 1505 1507 1509 1511 1513 1514 1516 1517 1518 1518 1519 1519 1519 1519 1519 1519 1519 1518 1518 1518 1517 1517 1516 1516 1515 1514 1513 1512 1512 1511 1510 1510 1509
1482 1487 1499 1514 1520 1537 1542 1528 1496 1495 1493 1494 1496 1497 1499 1501 1503 1505 1507 1510 1511 1513 1515 1515 1517 1517 1518 1518 1518 1518 1518 1517 1517 1517 1517 1517 1516 1516 1515 1515 1514 1513 1512 1511 1511 1510 1509 1508 1508
1474 1481 1493 1511 1518 1522 1530 1521 1485 1487 1489 1492 1494 1496 1498 1500 1502 1505 1506 1509 1510 1512 1513 1514 1515 1516 1517 1517 1517 1517 1516 1516 1516 1516 1516 1516 1515 1515 1514 1514 1513 1512 1511 1510 1510 1509 1508 1507 1506